OneWeb SL0309

operational
NORAD ID: 49095 Int'l Des: 2021-075 Owner: ONEWEBN Country: UK Constellation: oneweb
LEOCIRCULARPOLARONEWEB_TYPE

About OneWeb SL0309

Description loading...

Live Position

Loading 3D Globe...

Upcoming Passes

Altitude History

Altitude vs Time

uPlot chart will show altitude changes over time

Two-Line Element Set

1 49095U 21075W 26033.45419431 .00000000 00000-0 -33030-4 0 9991
2 49095 87.9104 32.6286 0001963 101.7101 258.4251 13.17647849215831
Epoch: Feb 2, 2026 • Age: 15 hours

Current Status

Altitude 1195.3 km
Velocity 7.26 km/s
Sub-Earth Point 14.34°N, 43.92°E
Launch Date Aug 21, 2021
Age 4.4 years
Type internet

Technical Details

Classification Payload
Mass 148.00 kg
Dry Mass 140.00 kg
Total Mass 148.00 kg
Length 1.30 m
Diameter 1.00 m
Span 5.00 m
Shape Trapezoid+2 pan
Manufacturer ONEWUS
Bus Type ARROW
Phase Status In Orbit
Owner/State ONEWEBN/UK

Large Constellations

Loading constellations...